Weather History for Wheeler AAF, HI

Change the Weather History Date:

Monday, October 1, 2012

  Actual Average Record
Temperature  
Mean Temperature 72 °F -  
Max Temperature 82 °F 81 °F 89 °F (2002)
Min Temperature 63 °F 68 °F 63 °F (2012)
Cooling Degree Days 8    
Growing Degree Days 22 (Base 50)    
Moisture  
Dew Point 63 °F    
Average Humidity 73    
Maximum Humidity 93    
Minimum Humidity 51    
Precipitation  
Precipitation 0.00 in - - ()
Sea Level Pressure  
Sea Level Pressure 29.93 in    
Wind  
Wind Speed 1 mph (SSE)    
Max Wind Speed 9 mph    
Max Gust Speed -    
Visibility 10 miles    
Events      
Averages and records for this station are not official NWS values.
T = Trace of Precipitation, MM = Missing Value Source: NWS Daily Summary

Daily Weather History Graph

Daily Weather History Graph

Search for Another Location

Airport:

Trip Planner

Search our weather history database for the weather conditions in past years. The results will help you decide how hot, cold, wet, or windy it might be!

Date:

Astronomy

Oct. 01, 2012 Rise Set
Actual Time 6:23 AM HST 6:19 PM HST
Civil Twilight 6:01 AM HST 6:41 PM HST
Nautical Twilight 5:35 AM HST 7:07 PM HST
Astronomical Twilight 5:09 AM HST 7:33 PM HST
Moon 7:24 PM HST (10/1) 7:45 AM HST (10/1)
Length of Visible Light 12h 40m
Length of Day
11h 55m
Full, 97% of the Moon is Illuminated
Oct 1
Full
Oct 7
Last Quarter
Oct 15
New
Oct 21
First Quarter
Oct 29
Full

Hourly Weather History & Observations

Time (HST) Temp. Heat Index Dew Point Humidity Pressure Visibility Wind Dir Wind Speed Gust Speed Precip Events Conditions
12:55 AM 68.2 °F - 64.6 °F 88% 29.94 in 10.0 mi Calm Calm - N/A   Partly Cloudy
2:55 AM 65.1 °F - 62.8 °F 92% 29.91 in 10.0 mi Calm Calm - N/A   Scattered Clouds
3:55 AM 64.4 °F - 61.5 °F 90% 29.88 in 10.0 mi Calm Calm - N/A   Clear
4:55 AM 63.5 °F - 61.3 °F 93% 29.90 in 8.0 mi Calm Calm - N/A   Clear
5:55 AM 65.5 °F - 63.1 °F 92% 29.91 in 10.0 mi Calm Calm - N/A   Overcast
6:55 AM 65.3 °F - 62.8 °F 92% 29.94 in 10.0 mi Calm Calm - N/A   Clear
7:55 AM 70.9 °F - 66.0 °F 85% 29.96 in 10.0 mi Calm Calm - N/A   Clear
8:55 AM 76.6 °F - 64.6 °F 66% 29.96 in 10.0 mi Variable 4.6 mph - N/A   Clear
9:55 AM 77.9 °F - 62.6 °F 59% 29.97 in 10.0 mi Variable 3.5 mph - N/A   Mostly Cloudy
10:55 AM 80.1 °F 81.5 °F 63.1 °F 56% 29.95 in 10.0 mi NNW 5.8 mph - N/A   Mostly Cloudy
11:55 AM 82.6 °F 83.6 °F 62.6 °F 51% 29.93 in 10.0 mi Calm Calm - N/A   Mostly Cloudy
12:55 PM 80.4 °F 82.2 °F 65.1 °F 59% 29.91 in 10.0 mi Variable 3.5 mph - N/A   Scattered Clouds
1:55 PM 79.0 °F - 64.0 °F 60% 29.88 in 10.0 mi South 3.5 mph - N/A   Overcast
2:55 PM 79.2 °F - 63.9 °F 59% 29.87 in 10.0 mi SE 4.6 mph - N/A   Overcast
3:55 PM 78.1 °F - 63.7 °F 61% 29.87 in 10.0 mi SE 9.2 mph - N/A   Overcast
4:55 PM 77.4 °F - 62.4 °F 60% 29.89 in 10.0 mi South 6.9 mph - N/A   Overcast
5:55 PM 76.5 °F - 61.9 °F 61% 29.91 in 10.0 mi SE 3.5 mph - N/A   Partly Cloudy
6:55 PM 74.5 °F - 63.5 °F 68% 29.93 in 10.0 mi Calm Calm - N/A   Partly Cloudy
7:55 PM 73.0 °F - 63.7 °F 72% 29.94 in 10.0 mi Calm Calm - N/A   Partly Cloudy
8:55 PM 72.7 °F - 64.4 °F 75% 29.96 in 10.0 mi ESE 3.5 mph - N/A   Mostly Cloudy
9:55 PM 70.2 °F - 64.2 °F 81% 29.97 in 10.0 mi Calm Calm - N/A   Mostly Cloudy
10:55 PM 68.4 °F - 63.7 °F 85% 29.95 in 10.0 mi Calm Calm - N/A   Mostly Cloudy
11:55 PM 68.7 °F - 63.7 °F 84% 29.95 in 10.0 mi Calm Calm - N/A   Mostly Cloudy